Location: Al Mulaqqa?ah
(24.1833°N, 32.8833°E)
Time: 21:44:00
(UTC+00:00)

Cosmos 2218 Rocket - Pass Details

Date: 26 September 2021
Orbit: 957 x 1005 km, 82.9° (Epoch: 23 October)

Event Time Altitude Azimuth Distance (km) Brightness Sun altitude
Rises 16:58:21 0° 165° (SSE) 3,620 6.8 -18.5°
Reaches altitude 10° 17:00:59 10° 158° (SSE) 2,677 6.0 -19.1°
Maximum altitude 17:06:38 40° 90° (E) 1,369 4.3 -20.4°
Drops below altitude 10° 17:12:19 10° 23° (NNE) 2,699 6.2 -21.7°
Sets 17:14:58 0° 16° (NNE) 3,653 6.9 -22.3°
